User: anonymous   Login
Location: Waning Moon II Observatory
(30.3730°N, 89.7620°W)
Time: 00:36:19
(UTC-06:00)
Language:

Meteor 1-21 - Orbit

View from above orbital plane
View from above orbital plane
View from above satellite
View from above satellite

Ground track
Ground track

The orbit data is extracted from the following two-line orbital elements,

1  7714U 75023A   17324.56305869 -.00000020 +00000-0 -19080-4 0  9991
2  7714 081.2133 039.4019 0031950 175.8079 184.3364 14.07971255506944
Epoch (UTC): 20 November 2017 13:30:48
Eccentricity: 0.0031950
inclination: 81.2133°
perigee height: 843 km
apogee height: 889 km
right ascension of ascending node: 39.4019°
argument of perigee: 175.8079°
revolutions per day: 14.07971255
mean anomaly at epoch: 184.3364°
orbit number at epoch: 50694

The dashed part of the orbit path shows where the satellite is in the earth's shadow,  

DLR